Surface/Precipitation History
06/24/2019 14:06  to  6/25/2019 14:06
Change End Date:
Date/Time
(MDT)
Sf
Temp Chem Water Layer Surface Precipitation
Sfc Pvt Sub Frz Factor Pct Dpth DpthThk IcePct Cond Salin FI Type Intens Accum Rate
06/25/2019 13:52 Dry 122.0F - 68F - - - - - - 0 mhos 0 - None None - -
06/25/2019 13:48 Dry 121.3F - 68F - - - - - - 1 mhos 33 - None None - -
06/25/2019 13:37 Dry 119.7F - 68F - - - - - - 1 mhos 34 - None None - -
06/25/2019 13:37 Dry 119.8F - 68F - - - - - - 1 mhos 33 - None None - -
06/25/2019 13:27 Dry 116.4F - 68F - - - - - - 1 mhos 31 - None None - -
06/25/2019 13:22 Dry 118.8F - 68F - - - - - - 1 mhos 30 - None None - -
06/25/2019 13:17 Dry 118.0F - 68F - - - - - - 1 mhos 31 - None None - -
06/25/2019 13:07 Dry 114.8F - 68F - - - - - - 1 mhos 31 - None None - -
06/25/2019 13:07 Dry 115.2F - 68F - - - - - - 1 mhos 31 - None None - -
06/25/2019 12:57 Dry 111.4F - 68F - - - - - - 1 mhos 32 - None None - -
06/25/2019 12:52 Dry 113.9F - 68F - - - - - - 1 mhos 31 - None None - -
06/25/2019 12:47 Dry 117.1F - 68F - - - - - - 0 mhos 0 - None None - -
06/25/2019 12:37 Dry 115.5F - 68F - - - - - - 1 mhos 31 - None None - -
06/25/2019 12:37 Dry 115.5F - 68F - - - - - - 1 mhos 31 - None None - -
06/25/2019 12:27 Dry 114.3F - 68F - - - - - - 0 mhos 0 - None None - -
Date/Time
(MDT)
Sf
Temp Chem Water Layer Surface Precipitation
Sfc Pvt Sub Frz Factor Pct Dpth DpthThk IcePct Cond Salin FI Type Intens Accum Rate
06/25/2019 12:22 Dry 114.1F - 68F - - - - - - 0 mhos 0 - None None - -
06/25/2019 12:17 Dry 113.2F - 68F - - - - - - 0 mhos 0 - None None - -
06/25/2019 12:07 Dry 111.2F - 68F - - - - - - 0 mhos 0 - None None - -
06/25/2019 12:07 Dry 111.2F - 68F - - - - - - 0 mhos 0 - None None - -
06/25/2019 11:57 Dry 111.4F - 68F - - - - - - 1 mhos 32 - None None - -
06/25/2019 11:52 Dry 111.2F - 68F - - - - - - 1 mhos 32 - None None - -
06/25/2019 11:47 Dry 110.7F - 68F - - - - - - 1 mhos 32 - None None - -
06/25/2019 11:37 Dry 109.8F - 68F - - - - - - 1 mhos 32 - None None - -
06/25/2019 11:37 Dry 109.8F - 68F - - - - - - 1 mhos 32 - None None - -
06/25/2019 11:27 Dry 109.9F - 68F - - - - - - 1 mhos 32 - None None - -
06/25/2019 11:22 Dry 109.2F - 68F - - - - - - 1 mhos 32 - None None - -
06/25/2019 11:17 Dry 108.5F - 68F - - - - - - 1 mhos 33 - None None - -
06/25/2019 11:07 Dry 108.1F - 68F - - - - - - 1 mhos 33 - None None - -
06/25/2019 11:07 Dry 108.1F - 68F - - - - - - 1 mhos 33 - None None - -
06/25/2019 10:57 Dry 106.2F - 68F - - - - - - 1 mhos 33 - None None - -
Date/Time
(MDT)
Sf
Temp Chem Water Layer Surface Precipitation
Sfc Pvt Sub Frz Factor Pct Dpth DpthThk IcePct Cond Salin FI Type Intens Accum Rate
06/25/2019 10:52 Dry 105.1F - 68F - - - - - - 1 mhos 33 - None None - -
06/25/2019 10:47 Dry 105.3F - 68F - - - - - - 1 mhos 33 - None None - -
06/25/2019 10:37 Dry 104.0F - 68F - - - - - - 1 mhos 34 - None None - -
06/25/2019 10:36 Dry 103.8F - 68F - - - - - - 1 mhos 34 - None None - -
06/25/2019 10:26 Dry 102.7F - 68F - - - - - - 1 mhos 34 - None None - -
06/25/2019 10:22 Dry 101.5F - 68F - - - - - - 1 mhos 34 - None None - -
06/25/2019 10:16 Dry 100.0F - 68F - - - - - - 1 mhos 35 - None None - -
06/25/2019 10:07 Dry 98.6F - 68F - - - - - - 1 mhos 35 - None None - -
06/25/2019 10:06 Dry 99.1F - 68F - - - - - - 1 mhos 35 - None None - -
06/25/2019 09:56 Dry 97.3F - 68F - - - - - - 1 mhos 35 - None None - -
06/25/2019 09:52 Dry 96.8F - 68F - - - - - - 1 mhos 35 - None None - -
06/25/2019 09:46 Dry 95.5F - 68F - - - - - - 1 mhos 36 - None None - -
06/25/2019 09:37 Dry 94.1F - 68F - - - - - - 1 mhos 36 - None None - -
06/25/2019 09:36 Dry 93.6F - 68F - - - - - - 1 mhos 36 - None None - -
06/25/2019 09:26 Dry 92.5F - 68F - - - - - - 1 mhos 36 - None None - -
Date/Time
(MDT)
Sf
Temp Chem Water Layer Surface Precipitation
Sfc Pvt Sub Frz Factor Pct Dpth DpthThk IcePct Cond Salin FI Type Intens Accum Rate
06/25/2019 09:22 Dry 92.3F - 68F - - - - - - 1 mhos 37 - None None - -
06/25/2019 09:16 Dry 90.7F - 68F - - - - - - 1 mhos 37 - None None - -
06/25/2019 09:07 Dry 88.7F - 68F - - - - - - 1 mhos 38 - None None - -
06/25/2019 09:06 Dry 88.3F - 68F - - - - - - 1 mhos 38 - None None - -
06/25/2019 08:56 Dry 86.7F - 68F - - - - - - 1 mhos 38 - None None - -
06/25/2019 08:52 Dry 85.5F - 68F - - - - - - 1 mhos 39 - None None - -
06/25/2019 08:46 Dry 85.1F - 68F - - - - - - 1 mhos 39 - None None - -
06/25/2019 08:37 Dry 82.6F - 69F - - - - - - 1 mhos 39 - None None - -
06/25/2019 08:36 Dry 82.2F - 69F - - - - - - 1 mhos 40 - None None - -
06/25/2019 08:26 Dry 79.9F - 69F - - - - - - 1 mhos 40 - None None - -
06/25/2019 08:22 Dry 79.0F - 69F - - - - - - 1 mhos 41 - None None - -
06/25/2019 08:16 Dry 77.5F - 69F - - - - - - 1 mhos 41 - None None - -
06/25/2019 08:06 Dry 75.4F - 69F - - - - - - 1 mhos 42 - None None - -
06/25/2019 07:55 Dry 72.9F - 69F - - - - - - 1 mhos 43 - None None - -
06/25/2019 07:45 Dry 70.2F - 69F - - - - - - 1 mhos 44 - None None - -
Date/Time
(MDT)
Sf
Temp Chem Water Layer Surface Precipitation
Sfc Pvt Sub Frz Factor Pct Dpth DpthThk IcePct Cond Salin FI Type Intens Accum Rate
06/25/2019 07:35 Dry 67.8F - 69F - - - - - - 1 mhos 45 - None None - -
06/25/2019 07:25 Dry 66.2F - 69F - - - - - - 1 mhos 46 - None None - -
06/25/2019 07:15 Dry 64.4F - 69F - - - - - - 1 mhos 46 - None None - -
06/25/2019 07:05 Other - - 69F - - - - - - - - - Yes - - -
06/25/2019 05:52 Dry 52.7F - 69F - - - - - - 0 mhos 0 - None None - -
06/25/2019 05:51 Dry 52.7F - 69F - - - - - - 1 mhos 49 - None None - -
06/25/2019 05:41 Dry 52.7F - 69F - - - - - - 1 mhos 56 - None None - -
06/25/2019 05:37 Dry 52.7F - 69F - - - - - - 1 mhos 56 - None None - -
06/25/2019 05:30 Dry 52.5F - 69F - - - - - - 1 mhos 57 - None None - -
06/25/2019 05:22 Dry 52.2F - 69F - - - - - - 1 mhos 52 - None None - -
06/25/2019 05:20 Dry 52.2F - 69F - - - - - - 1 mhos 52 - None None - -
06/25/2019 05:10 Dry 52.2F - 69F - - - - - - 1 mhos 52 - None None - -
06/25/2019 05:07 Dry 52.2F - 69F - - - - - - 1 mhos 52 - None None - -
06/25/2019 05:00 Dry 52.2F - 69F - - - - - - 1 mhos 52 - None None - -
06/25/2019 04:52 Dry 52.2F - 69F - - - - - - 1 mhos 52 - None None - -
Date/Time
(MDT)
Sf
Temp Chem Water Layer Surface Precipitation
Sfc Pvt Sub Frz Factor Pct Dpth DpthThk IcePct Cond Salin FI Type Intens Accum Rate
06/25/2019 04:50 Dry 52.2F - 69F - - - - - - 1 mhos 52 - None None - -
06/25/2019 04:40 Dry 52.5F - 69F - - - - - - 1 mhos 52 - None None - -
06/25/2019 04:37 Dry 52.5F - 69F - - - - - - 1 mhos 53 - None None - -
06/25/2019 04:30 Dry 52.5F - 69F - - - - - - 0 mhos 0 - None None - -
06/25/2019 04:22 Dry 52.5F - 69F - - - - - - 0 mhos 0 - None None - -
06/25/2019 04:20 Dry 52.7F - 69F - - - - - - 0 mhos 0 - None None - -
06/25/2019 04:10 Dry 52.7F - 69F - - - - - - 0 mhos 0 - None None - -
06/25/2019 04:07 Dry 52.9F - 69F - - - - - - 0 mhos 0 - None None - -
06/25/2019 04:00 Dry 53.1F - 69F - - - - - - 0 mhos 0 - None None - -
06/25/2019 03:50 Dry 53.2F - 69F - - - - - - 0 mhos 0 - None None - -
06/25/2019 03:40 Dry 53.4F - 69F - - - - - - 1 mhos 52 - None None - -
06/25/2019 03:38 Dry 53.4F - 69F - - - - - - 1 mhos 52 - None None - -
06/25/2019 03:30 Dry 53.6F - 69F - - - - - - 0 mhos 0 - None None - -
06/25/2019 03:20 Dry 53.8F - 69F - - - - - - 0 mhos 0 - None None - -
06/25/2019 03:07 Dry 53.8F - 69F - - - - - - 0 mhos 0 - None None - -
Date/Time
(MDT)
Sf
Temp Chem Water Layer Surface Precipitation
Sfc Pvt Sub Frz Factor Pct Dpth DpthThk IcePct Cond Salin FI Type Intens Accum Rate
06/25/2019 03:00 Dry 54.1F - 69F - - - - - - 0 mhos 0 - None None - -
06/25/2019 02:52 Dry 54.3F - 69F - - - - - - 0 mhos 0 - None None - -
06/25/2019 02:50 Dry 54.3F - 69F - - - - - - 0 mhos 0 - None None - -
06/25/2019 02:40 Dry 54.5F - 69F - - - - - - 1 mhos 51 - None None - -
06/25/2019 02:37 Dry 54.5F - 69F - - - - - - 1 mhos 51 - None None - -
06/25/2019 02:30 Dry 54.7F - 69F - - - - - - 1 mhos 51 - None None - -
06/25/2019 02:22 Dry 54.9F - 69F - - - - - - 1 mhos 51 - None None - -
06/25/2019 02:20 Dry 54.9F - 69F - - - - - - 1 mhos 51 - None None - -
06/25/2019 02:09 Dry 55.0F - 69F - - - - - - 1 mhos 51 - None None - -
06/25/2019 02:07 Dry 55.0F - 69F - - - - - - 1 mhos 51 - None None - -
06/25/2019 01:59 Dry 55.2F - 69F - - - - - - 1 mhos 51 - None None - -
06/25/2019 01:52 Dry 55.6F - 69F - - - - - - 1 mhos 50 - None None - -
06/25/2019 01:49 Dry 55.6F - 69F - - - - - - 1 mhos 50 - None None - -
06/25/2019 01:39 Dry 55.9F - 69F - - - - - - 1 mhos 50 - None None - -
06/25/2019 01:37 Dry 56.1F - 69F - - - - - - 1 mhos 50 - None None - -
Date/Time
(MDT)
Sf
Temp Chem Water Layer Surface Precipitation
Sfc Pvt Sub Frz Factor Pct Dpth DpthThk IcePct Cond Salin FI Type Intens Accum Rate
06/25/2019 01:29 Dry 56.3F - 69F - - - - - - 1 mhos 50 - None None - -
06/25/2019 01:22 Dry 56.3F - 69F - - - - - - 1 mhos 50 - None None - -
06/25/2019 01:19 Dry 56.5F - 69F - - - - - - 1 mhos 50 - None None - -
06/25/2019 01:09 Dry 56.7F - 69F - - - - - - 1 mhos 50 - None None - -
06/25/2019 01:08 Dry 56.7F - 69F - - - - - - 1 mhos 50 - None None - -
06/25/2019 00:59 Dry 57.2F - 69F - - - - - - 1 mhos 50 - None None - -
06/25/2019 00:52 Dry 57.4F - 69F - - - - - - 1 mhos 50 - None None - -
06/25/2019 00:49 Dry 57.6F - 69F - - - - - - 1 mhos 49 - None None - -
06/25/2019 00:39 Dry 57.6F - 69F - - - - - - 1 mhos 49 - None None - -
06/25/2019 00:37 Dry 57.7F - 69F - - - - - - 1 mhos 49 - None None - -
06/25/2019 00:29 Dry 57.9F - 69F - - - - - - 1 mhos 49 - None None - -
06/25/2019 00:22 Dry 57.9F - 69F - - - - - - 1 mhos 49 - None None - -
06/25/2019 00:19 Dry 58.1F - 69F - - - - - - 1 mhos 49 - None None - -
06/25/2019 00:09 Dry 58.5F - 69F - - - - - - 1 mhos 49 - None None - -
06/25/2019 00:07 Dry 58.6F - 69F - - - - - - 1 mhos 49 - None None - -
Date/Time
(MDT)
Sf
Temp Chem Water Layer Surface Precipitation
Sfc Pvt Sub Frz Factor Pct Dpth DpthThk IcePct Cond Salin FI Type Intens Accum Rate
06/24/2019 23:59 Dry 58.6F - 69F - - - - - - 1 mhos 49 - None None - -
06/24/2019 23:52 Dry 59.2F - 69F - - - - - - 1 mhos 49 - None None - -
06/24/2019 23:49 Dry 59.4F - 69F - - - - - - 1 mhos 49 - None None - -
06/24/2019 23:39 Dry 59.7F - 69F - - - - - - 1 mhos 49 - None None - -
06/24/2019 23:37 Dry 59.9F - 69F - - - - - - 1 mhos 48 - None None - -
06/24/2019 23:29 Dry 60.1F - 69F - - - - - - 1 mhos 48 - None None - -
06/24/2019 23:22 Dry 60.6F - 69F - - - - - - 1 mhos 48 - None None - -
06/24/2019 23:19 Dry 60.6F - 69F - - - - - - 1 mhos 48 - None None - -
06/24/2019 23:09 Dry 61.0F - 69F - - - - - - 1 mhos 48 - None None - -
06/24/2019 23:07 Dry 61.2F - 69F - - - - - - 1 mhos 48 - None None - -
06/24/2019 22:59 Dry 61.9F - 69F - - - - - - 1 mhos 48 - None None - -
06/24/2019 22:52 Dry 62.2F - 69F - - - - - - 1 mhos 47 - None None - -
06/24/2019 22:48 Dry 62.2F - 69F - - - - - - 1 mhos 47 - None None - -
06/24/2019 22:38 Dry 63.0F - 69F - - - - - - 1 mhos 47 - None None - -
06/24/2019 22:37 Dry 63.1F - 69F - - - - - - 1 mhos 47 - None None - -
Date/Time
(MDT)
Sf
Temp Chem Water Layer Surface Precipitation
Sfc Pvt Sub Frz Factor Pct Dpth DpthThk IcePct Cond Salin FI Type Intens Accum Rate
06/24/2019 22:28 Dry 63.5F - 69F - - - - - - 1 mhos 47 - None None - -
06/24/2019 22:22 Dry 64.4F - 69F - - - - - - 1 mhos 46 - None None - -
06/24/2019 22:18 Dry 64.6F - 69F - - - - - - 1 mhos 46 - None None - -
06/24/2019 22:08 Dry 65.5F - 69F - - - - - - 1 mhos 46 - None None - -
06/24/2019 22:07 Dry 65.7F - 69F - - - - - - 1 mhos 46 - None None - -
06/24/2019 21:58 Dry 66.2F - 69F - - - - - - 1 mhos 46 - None None - -
06/24/2019 21:52 Dry 66.6F - 68F - - - - - - 1 mhos 45 - None None - -
06/24/2019 21:48 Dry 66.6F - 69F - - - - - - 1 mhos 45 - None None - -
06/24/2019 21:38 Dry 66.6F - 68F - - - - - - 1 mhos 45 - None None - -
06/24/2019 21:37 Dry 66.6F - 68F - - - - - - 1 mhos 45 - None None - -
06/24/2019 21:28 Dry 66.7F - 68F - - - - - - 1 mhos 45 - None None - -
06/24/2019 21:22 Dry 66.9F - 68F - - - - - - 1 mhos 45 - None None - -
06/24/2019 21:18 Dry 67.5F - 68F - - - - - - 1 mhos 45 - None None - -
06/24/2019 21:08 Dry 68.4F - 68F - - - - - - 1 mhos 45 - None None - -
06/24/2019 21:07 Dry 68.5F - 68F - - - - - - 1 mhos 45 - None None - -
Date/Time
(MDT)
Sf
Temp Chem Water Layer Surface Precipitation
Sfc Pvt Sub Frz Factor Pct Dpth DpthThk IcePct Cond Salin FI Type Intens Accum Rate
06/24/2019 20:58 Dry 69.3F - 68F - - - - - - 1 mhos 44 - None None - -
06/24/2019 20:52 Dry 69.8F - 68F - - - - - - 1 mhos 44 - None None - -
06/24/2019 20:48 Dry 70.2F - 68F - - - - - - 1 mhos 44 - None None - -
06/24/2019 20:38 Dry 71.2F - 68F - - - - - - 1 mhos 43 - None None - -
06/24/2019 20:37 Dry 71.4F - 68F - - - - - - 1 mhos 43 - None None - -
06/24/2019 20:28 Dry 72.9F - 68F - - - - - - 1 mhos 43 - None None - -
06/24/2019 20:22 Dry 73.8F - 68F - - - - - - 1 mhos 43 - None None - -
06/24/2019 20:18 Dry 74.3F - 68F - - - - - - 1 mhos 42 - None None - -
06/24/2019 20:08 Dry 76.1F - 68F - - - - - - 1 mhos 42 - None None - -
06/24/2019 20:07 Dry 76.3F - 68F - - - - - - 1 mhos 42 - None None - -
06/24/2019 19:58 Dry 77.4F - 68F - - - - - - 1 mhos 41 - None None - -
06/24/2019 19:52 Dry 77.0F - 68F - - - - - - 1 mhos 41 - None None - -
06/24/2019 19:48 Dry 76.5F - 68F - - - - - - 1 mhos 42 - None None - -
06/24/2019 19:38 Dry 76.3F - 68F - - - - - - 1 mhos 42 - None None - -
06/24/2019 19:37 Dry 76.3F - 68F - - - - - - 1 mhos 42 - None None - -
Date/Time
(MDT)
Sf
Temp Chem Water Layer Surface Precipitation
Sfc Pvt Sub Frz Factor Pct Dpth DpthThk IcePct Cond Salin FI Type Intens Accum Rate
06/24/2019 19:28 Dry 77.5F - 68F - - - - - - 1 mhos 41 - None None - -
06/24/2019 19:22 Dry 79.2F - 68F - - - - - - 1 mhos 41 - None None - -
06/24/2019 19:17 Dry 79.9F - 68F - - - - - - 1 mhos 40 - None None - -
06/24/2019 19:07 Dry 81.7F - 68F - - - - - - 1 mhos 40 - None None - -
06/24/2019 19:07 Dry 81.7F - 68F - - - - - - 1 mhos 40 - None None - -
06/24/2019 18:57 Dry 82.8F - 67F - - - - - - 1 mhos 39 - None None - -
06/24/2019 18:52 Dry 83.3F - 67F - - - - - - 1 mhos 39 - None None - -
06/24/2019 18:47 Dry 83.8F - 67F - - - - - - 1 mhos 39 - None None - -
06/24/2019 18:37 Dry 84.9F - 67F - - - - - - 1 mhos 39 - None None - -
06/24/2019 18:37 Dry 84.9F - 67F - - - - - - 1 mhos 39 - None None - -
06/24/2019 18:27 Dry 86.4F - 67F - - - - - - 1 mhos 38 - None None - -
06/24/2019 18:22 Dry 87.1F - 67F - - - - - - 1 mhos 38 - None None - -
06/24/2019 18:17 Dry 87.6F - 67F - - - - - - 1 mhos 38 - None None - -
06/24/2019 18:07 Dry 88.9F - 67F - - - - - - 1 mhos 38 - None None - -
06/24/2019 18:07 Dry 88.9F - 67F - - - - - - 1 mhos 38 - None None - -
Date/Time
(MDT)
Sf
Temp Chem Water Layer Surface Precipitation
Sfc Pvt Sub Frz Factor Pct Dpth DpthThk IcePct Cond Salin FI Type Intens Accum Rate
06/24/2019 17:57 Dry 93.6F - 67F - - - - - - 1 mhos 36 - None None - -
06/24/2019 17:52 Dry 93.9F - 67F - - - - - - 1 mhos 36 - None None - -
06/24/2019 17:47 Dry 94.3F - 67F - - - - - - 1 mhos 36 - None None - -
06/24/2019 17:37 Dry 95.7F - 67F - - - - - - 1 mhos 36 - None None - -
06/24/2019 17:37 Dry 95.7F - 67F - - - - - - 1 mhos 36 - None None - -
06/24/2019 17:27 Dry 96.1F - 67F - - - - - - 1 mhos 36 - None None - -
06/24/2019 17:22 Dry 97.3F - 67F - - - - - - 1 mhos 35 - None None - -
06/24/2019 17:17 Dry 96.6F - 67F - - - - - - 1 mhos 35 - None None - -
06/24/2019 17:07 Dry 98.2F - 67F - - - - - - 1 mhos 35 - None None - -
06/24/2019 17:07 Dry 98.2F - 67F - - - - - - 1 mhos 35 - None None - -
06/24/2019 16:57 Dry 99.3F - 67F - - - - - - 1 mhos 35 - None None - -
06/24/2019 16:52 Dry 100.0F - 67F - - - - - - 1 mhos 35 - None None - -
06/24/2019 16:47 Dry 99.7F - 67F - - - - - - 1 mhos 35 - None None - -
06/24/2019 16:37 Dry 99.9F - 67F - - - - - - 1 mhos 35 - None None - -
06/24/2019 16:37 Dry 99.9F - 67F - - - - - - 1 mhos 35 - None None - -
Date/Time
(MDT)
Sf
Temp Chem Water Layer Surface Precipitation
Sfc Pvt Sub Frz Factor Pct Dpth DpthThk IcePct Cond Salin FI Type Intens Accum Rate
06/24/2019 16:27 Dry 101.1F - 67F - - - - - - 1 mhos 34 - None None - -
06/24/2019 16:22 Dry 99.7F - 67F - - - - - - 1 mhos 35 - None None - -
06/24/2019 16:17 Dry 97.9F - 67F - - - - - - 1 mhos 35 - None None - -
06/24/2019 16:07 Dry 99.5F - 67F - - - - - - 1 mhos 35 - None None - -
06/24/2019 16:07 Dry 99.5F - 67F - - - - - - 1 mhos 35 - None None - -
06/24/2019 15:56 Dry 100.9F - 67F - - - - - - 1 mhos 34 - None None - -
06/24/2019 15:52 Dry 105.1F - 67F - - - - - - 1 mhos 33 - None None - -
06/24/2019 15:46 Dry 108.0F - 67F - - - - - - 1 mhos 33 - None None - -
06/24/2019 15:37 Dry 105.3F - 67F - - - - - - 1 mhos 33 - None None - -
06/24/2019 15:36 Dry 105.3F - 67F - - - - - - 1 mhos 33 - None None - -
06/24/2019 15:26 Dry 106.0F - 67F - - - - - - 1 mhos 33 - None None - -
06/24/2019 15:22 Dry 105.8F - 67F - - - - - - 1 mhos 33 - None None - -
06/24/2019 15:16 Dry 106.0F - 67F - - - - - - 1 mhos 33 - None None - -
06/24/2019 15:07 Dry 105.8F - 67F - - - - - - 1 mhos 33 - None None - -
06/24/2019 15:06 Dry 105.3F - 67F - - - - - - 1 mhos 33 - None None - -
Date/Time
(MDT)
Sf
Temp Chem Water Layer Surface Precipitation
Sfc Pvt Sub Frz Factor Pct Dpth DpthThk IcePct Cond Salin FI Type Intens Accum Rate
06/24/2019 14:56 Dry 108.1F - 67F - - - - - - 1 mhos 33 - None None - -
06/24/2019 14:52 Dry 106.0F - 67F - - - - - - 1 mhos 33 - None None - -
06/24/2019 14:46 Dry 107.4F - 67F - - - - - - 1 mhos 33 - None None - -
06/24/2019 14:37 Dry 106.2F - 67F - - - - - - 1 mhos 33 - None None - -
06/24/2019 14:36 Dry 104.9F - 67F - - - - - - 1 mhos 34 - None None - -
06/24/2019 14:26 Dry 105.1F - 67F - - - - - - 1 mhos 33 - None None - -
06/24/2019 14:22 Dry 110.3F - 67F - - - - - - 1 mhos 32 - None None - -
06/24/2019 14:16 Dry 103.1F - 67F - - - - - - 1 mhos 34 - None None - -
06/24/2019 14:07 Dry 98.2F - 67F - - - - - - 1 mhos 35 - None None - -
06/24/2019 14:06 Dry 97.5F - 67F - - - - - - 1 mhos 35 - None None - -
Change End Date:

Copyright © 1998-2015 Vaisala, Inc.
All Rights Reserved
Send comments about the data to:
SCAN Web ® is a registered trademark of Vaisala, Inc.
SCAN Web Version 6.0